カタログに戻る

STARLINK-4690

運用中通信VLEO
NORAD 53604·PAYLOAD·🇺🇸 United States

打ち上げ Aug 28, 2022 から Cape Canaveral Space Force Station

Loading…

次のパス (今後24時間)

TLE

最新Source: CelesTrak SupGP

元期: Sep 15, 2026, 02:48 UTC

1 53604C 22104S   26258.11715278 -.00012950  00000+0 -38259-3 0  2588
2 53604  53.1581  98.7682 0001256  79.5118 353.0291 15.34399079    12

AllMySatでSTARLINK-4690をリアルタイム追跡

Download on the App Store